This demonstration page uses our WeatherBlox Daily Observations layout. Learn more.

Hourly Observations for August 20, 2017

Temp ( °F °C ) Dew Point ( °F °C ) Humidity (%) Winds ( mph kmh ) Pressure ( in mb ) Visibility ( mi km ) Precip ( " mm )
12:15 am 00:15 Clear 69 20.8 63 17.1 79 79 SE 6 9 29.8 1009 10 16.09344 0 0
12:35 am 00:35 Clear 68 20 63 17.1 83 83 Calm 29.8 1009 10 16.09344 0 0
12:55 am 00:55 Clear 67 19.5 63 17.1 86 86 NNE 12 19 29.83 1010 10 16.09344 0 0
1:15 am 01:15 Clear 75 24.1 63 17.1 65 65 E 13 20 29.8 1009 10 16.09344 0 0
1:35 am 01:35 Partly Cloudy 72 22.1 64 17.5 75 75 ENE 13 20 29.83 1010 10 16.09344 0 0
1:55 am 01:55 Partly Cloudy 70 21 63 17 78 78 E 8 13 29.83 1010 10 16.09344 0 0
2:15 am 02:15 Clear 69 20.6 63 17.2 81 81 ESE 12 19 29.8 1009 10 16.09344 0 0
2:35 am 02:35 Clear 67 19.3 62 16.6 84 84 E 13 20 29.83 1010 10 16.09344 0 0
2:55 am 02:55 Clear 66 19 62 16.5 86 86 ESE 14 22 29.8 1009 10 16.09344 0 0
3:15 am 03:15 Clear 66 19 62 16.6 86 86 ESE 12 19 29.8 1009 10 16.09344 0 0
3:35 am 03:35 Clear 65 18.6 62 16.6 88 88 ESE 13 20 29.8 1009 10 16.09344 0 0
3:55 am 03:55 Clear 65 18.5 62 16.7 89 89 ESE 9 15 29.8 1009 10 16.09344 0 0
4:15 am 04:15 Clear 64 18 62 16.5 91 91 Calm 29.83 1010 10 16.09344 0 0
4:35 am 04:35 Clear 64 18 62 16.5 91 91 SE 5 7 29.83 1010 10 16.09344 0 0
4:55 am 04:55 Clear 63 17.3 61 16.2 93 93 Calm 29.83 1010 10 16.09344 0 0
5:15 am 05:15 Clear 64 18 62 16.8 93 93 SE 10 17 29.83 1010 10 16.09344 0 0
5:35 am 05:35 Clear 65 18.3 62 16.8 91 91 SE 10 17 29.8 1009 10 16.09344 0 0
5:55 am 05:55 Clear 65 18.2 62 16.9 92 92 SE 9 15 29.83 1010 10 16.09344 0 0
6:15 am 06:15 Clear 65 18.3 63 17 92 92 SE 8 13 29.8 1009 10 16.09344 0 0
6:35 am 06:35 Clear 65 18.3 63 17 92 92 SE 8 13 29.8 1009 10 16.09344 0 0
6:55 am 06:55 Sunny 64 18 62 16.7 92 92 SE 6 9 29.83 1010 10 16.09344 0 0
7:15 am 07:15 Sunny 64 18 62 16.8 93 93 SSE 5 7 29.83 1010 10 16.09344 0 0
7:35 am 07:35 Sunny 65 18.2 63 17.1 93 93 SSE 6 9 29.83 1010 10 16.09344 0 0
7:55 am 07:55 Sunny 65 18.6 63 17.4 93 93 SE 8 13 29.83 1010 10 16.09344 0 0
8:15 am 08:15 Sunny 66 19.1 64 17.7 92 92 SE 9 15 29.83 1010 10 16.09344 0 0
8:35 am 08:35 Sunny 68 20 65 18.2 89 89 SE 10 17 29.83 1010 10 16.09344 0 0
8:55 am 08:55 Sunny 69 20.6 65 18.4 87 87 ESE 8 13 29.83 1010 10 16.09344 0 0
9:15 am 09:15 Sunny 71 21.4 65 18.6 84 84 SE 8 13 29.83 1010 10 16.09344 0 0
9:35 am 09:35 Sunny 71 21.9 66 18.7 82 82 SE 6 9 29.85 1011 10 16.09344 0 0
9:55 am 09:55 Sunny 74 23.1 67 19.2 79 79 SSE 7 11 29.83 1010 10 16.09344 0 0
10:15 am 10:15 Sunny 75 23.9 66 19.1 75 75 SSE 5 7 29.83 1010 10 16.09344 0 0
10:35 am 10:35 Sunny 77 24.9 67 19.5 72 72 SSE 8 13 29.83 1010 10 16.09344 0 0
10:55 am 10:55 Sunny 77 25.2 66 19.1 69 69 SE 9 15 29.83 1010 10 16.09344 0 0
11:15 am 11:15 Sunny 79 26 67 19.2 66 66 SE 8 13 29.83 1010 10 16.09344 0 0
11:35 am 11:35 Sunny 80 26.7 66 19.1 63 63 SSE 8 13 29.8 1009 10 16.09344 0 0
11:55 am 11:55 Sunny 82 27.5 66 19 60 60 S 7 11 29.8 1009 10 16.09344 0 0
12:15 pm 12:15 Sunny 82 27.9 64 18 55 55 S 6 9 29.8 1009 10 16.09344 0 0
12:35 pm 12:35 Sunny 83 28.3 67 19.2 58 58 SSE 8 13 29.8 1009 10 16.09344 0 0
12:55 pm 12:55 Sunny 84 28.8 67 19.3 56 56 S 7 11 29.8 1009 10 16.09344 0 0
1:15 pm 13:15 Sunny 84 29 65 18.4 53 53 SE 3 6 29.8 1009 10 16.09344 0 0
1:35 pm 13:35 Sunny 85 29.4 67 19.4 55 55 SE 7 11 29.8 1009 10 16.09344 0 0
1:55 pm 13:55 Sunny 85 29.5 67 19.3 54 54 SE 9 15 29.8 1009 10 16.09344 0 0
2:15 pm 14:15 Sunny 86 29.9 68 19.8 55 55 SE 8 13 29.74 1007 10 16.09344 0 0
2:35 pm 14:35 Sunny 86 30.2 67 19.7 53 53 SE 6 9 29.74 1007 10 16.09344 0 0
2:55 pm 14:55 Sunny 87 30.6 68 19.9 53 53 SE 6 9 29.74 1007 10 16.09344 0 0
3:15 pm 15:15 Sunny 88 31 67 19.6 51 51 SSE 7 11 29.74 1007 10 16.09344 0 0
3:35 pm 15:35 Sunny 88 31.3 69 20.5 53 53 SE 7 11 29.74 1007 10 16.09344 0 0
3:55 pm 15:55 Sunny 89 31.5 68 19.9 50 50 SSE 6 9 29.74 1007 10 16.09344 0 0
4:15 pm 16:15 Sunny 89 31.8 68 20 50 50 SSE 7 11 29.74 1007 10 16.09344 0 0
4:35 pm 16:35 Sunny 90 32 69 20.6 51 51 SE 6 9 29.74 1007 10 16.09344 0 0
4:55 pm 16:55 Sunny 90 32 68 20 49 49 SE 6 9 29.74 1007 10 16.09344 0 0
5:15 pm 17:15 Sunny 90 32.1 71 21.5 53 53 ESE 7 11 29.74 1007 10 16.09344 0 0
5:35 pm 17:35 Sunny 88 31.3 72 22.1 58 58 E 5 7 29.74 1007 10 16.09344 0 0
5:55 pm 17:55 Sunny 88 31.1 73 22.6 61 61 ENE 6 9 29.74 1007 10 16.09344 0 0
6:15 pm 18:15 Sunny 87 30.7 73 22.6 62 62 ENE 6 9 29.74 1007 10 16.09344 0 0
6:35 pm 18:35 Sunny 85 29.2 74 23.4 71 71 ENE 6 9 29.77 1008 10 16.09344 0 0
6:55 pm 18:55 Sunny 84 28.7 75 24.1 76 76 ENE 6 9 29.77 1008 10 16.09344 0 0
7:15 pm 19:15 Sunny 84 29 76 24.2 75 75 NE 9 15 29.77 1008 10 16.09344 0 0
7:35 pm 19:35 Sunny 82 28 77 25 84 84 ENE 9 15 29.77 1008 10 16.09344 0 0
7:55 pm 19:55 Sunny 82 27.5 76 24.7 85 85 ENE 9 15 29.77 1008 10 16.09344 0 0
8:15 pm 20:15 Sunny 80 26.7 76 24.5 88 88 ENE 8 13 29.77 1008 10 16.09344 0 0
8:35 pm 20:35 Clear 80 26.4 76 24.2 88 88 E 8 13 29.77 1008 10 16.09344 0 0
8:55 pm 20:55 Clear 79 26.1 75 24 88 88 E 8 13 29.77 1008 10 16.09344 0 0
9:15 pm 21:15 Clear 78 25.3 74 23.6 90 90 ENE 7 11 29.8 1009 10 16.09344 0 0
9:35 pm 21:35 Clear 77 24.8 74 23.5 93 93 ENE 7 11 29.83 1010 10 16.09344 0 0
9:55 pm 21:55 Clear 78 25.4 73 23 87 87 E 8 13 29.83 1010 10 16.09344 0 0
10:15 pm 22:15 Clear 76 24.5 73 22.5 89 89 E 7 11 29.83 1010 10 16.09344 0 0
10:35 pm 22:35 Clear 76 24.3 71 21.4 84 84 SE 6 9 29.83 1010 10 16.09344 0 0
10:55 pm 22:55 Clear 75 23.9 68 19.8 78 78 SSE 7 11 29.83 1010 10 16.09344 0 0
11:15 pm 23:15 Clear 75 24 66 19.1 74 74 SSE 7 11 29.83 1010 10 16.09344 0 0
11:35 pm 23:35 Clear 76 24.6 65 18.6 69 69 S 8 13 29.83 1010 10 16.09344 0 0
11:55 pm 23:55 Clear 76 24.5 65 18.6 70 70 S 7 11 29.83 1010 10 16.09344 0 0

Powered by AerisWeather